DAL1670 KFLL-KATL

Flight info

Callsign DAL1670
Flight time 1h 33m
Altitude 34000
Route FRSBE2 STYMY Q77 MJAMS/N0439F330 Q77 SHRKS/N0444F340 LAIRI LARZZ JJEDI4
Aircraft B739/M-SDE2E3FGHIRWXY/LB1

Departure

Time 2026-05-08 01:26
Airport Fort Lauderdale Hollywood International Airport (KFLL)

Arrival

Time 2026-05-08 02:59
Airport Hartsfield Jackson Atlanta International Airport (KATL)
Time Latitude Longitude Altitude Speed Heading
2026-05-08 00:05 26.07338 -80.14423 6 ft 0 kts 102°
2026-05-08 01:09 26.07339 -80.14429 15 ft 4 kts 101°
2026-05-08 01:10 26.07342 -80.14458 15 ft 4 kts 83°
2026-05-08 01:10 26.07334 -80.14484 16 ft 4 kts 44°
2026-05-08 01:10 26.07321 -80.14492 18 ft 0 kts 360°
2026-05-08 01:13 26.07333 -80.14492 17 ft 3 kts 360°
2026-05-08 01:14 26.07363 -80.14492 15 ft 6 kts 360°
2026-05-08 01:14 26.07412 -80.14492 15 ft 7 kts 360°
2026-05-08 01:14 26.07462 -80.14496 15 ft 7 kts 343°
2026-05-08 01:14 26.07486 -80.14522 17 ft 0 kts 294°
2026-05-08 01:15 26.07488 -80.14543 15 ft 7 kts 270°
2026-05-08 01:15 26.07488 -80.14639 15 ft 16 kts 271°
2026-05-08 01:15 26.07489 -80.14767 15 ft 16 kts 269°
2026-05-08 01:16 26.07488 -80.14890 15 ft 16 kts 269°
2026-05-08 01:16 26.07487 -80.15009 15 ft 15 kts 270°
2026-05-08 01:16 26.07488 -80.15123 15 ft 14 kts 270°
2026-05-08 01:16 26.07489 -80.15233 15 ft 14 kts 270°
2026-05-08 01:17 26.07490 -80.15337 15 ft 13 kts 270°
2026-05-08 01:17 26.07491 -80.15437 15 ft 13 kts 270°
2026-05-08 01:17 26.07492 -80.15533 15 ft 12 kts 270°
2026-05-08 01:17 26.07493 -80.15628 15 ft 12 kts 270°
2026-05-08 01:18 26.07493 -80.15722 15 ft 12 kts 270°
2026-05-08 01:18 26.07493 -80.15811 15 ft 12 kts 270°
2026-05-08 01:18 26.07492 -80.15900 15 ft 12 kts 270°
2026-05-08 01:18 26.07493 -80.16042 15 ft 20 kts 271°
2026-05-08 01:19 26.07495 -80.16209 15 ft 24 kts 270°
2026-05-08 01:19 26.07496 -80.16378 15 ft 17 kts 270°
2026-05-08 01:19 26.07496 -80.16498 15 ft 14 kts 270°
2026-05-08 01:19 26.07496 -80.16593 15 ft 7 kts 270°
2026-05-08 01:20 26.07508 -80.16631 16 ft 0 kts 315°
2026-05-08 01:21 26.07512 -80.16635 17 ft 2 kts 320°
2026-05-08 01:21 26.07530 -80.16642 15 ft 3 kts 349°
2026-05-08 01:21 26.07550 -80.16644 15 ft 3 kts 358°
2026-05-08 01:21 26.07566 -80.16643 15 ft 0 kts
2026-05-08 01:23 26.07605 -80.16643 16 ft 9 kts
2026-05-08 01:23 26.07664 -80.16642 17 ft 8 kts
2026-05-08 01:23 26.07695 -80.16604 18 ft 7 kts 88°
2026-05-08 01:24 26.07695 -80.16594 17 ft 0 kts 90°
2026-05-08 01:25 26.07695 -80.16538 17 ft 29 kts 90°
2026-05-08 01:25 26.07692 -80.16016 18 ft 104 kts 90°
2026-05-08 01:25 26.07685 -80.14975 23 ft 162 kts 92°
2026-05-08 01:26 26.07696 -80.13682 621 ft 165 kts 91°
2026-05-08 01:26 26.07719 -80.12367 1232 ft 175 kts 93°
2026-05-08 01:26 26.07738 -80.10982 1896 ft 178 kts 91°
2026-05-08 01:26 26.07885 -80.09545 2308 ft 201 kts 74°
2026-05-08 01:27 26.08601 -80.08109 2514 ft 227 kts 46°
2026-05-08 01:27 26.09809 -80.06870 2842 ft 243 kts 34°
2026-05-08 01:27 26.11346 -80.06107 3323 ft 253 kts 17°
2026-05-08 01:27 26.13071 -80.05451 3731 ft 269 kts 17°
2026-05-08 01:28 26.14862 -80.04859 4612 ft 268 kts
2026-05-08 01:28 26.16696 -80.05017 5481 ft 266 kts 343°
2026-05-08 01:28 26.18471 -80.05683 6218 ft 273 kts 340°
2026-05-08 01:28 26.20287 -80.06410 6912 ft 279 kts 339°
2026-05-08 01:29 26.21972 -80.07459 7640 ft 282 kts 316°
2026-05-08 01:29 26.23127 -80.09215 8336 ft 285 kts 294°
2026-05-08 01:29 26.23882 -80.11282 9048 ft 290 kts 291°
2026-05-08 01:29 26.24608 -80.13398 9744 ft 295 kts 290°
2026-05-08 01:30 26.25356 -80.15551 10340 ft 303 kts 291°
2026-05-08 01:30 26.26332 -80.17734 10502 ft 326 kts 300°
2026-05-08 01:30 26.27572 -80.19941 10675 ft 345 kts 302°
2026-05-08 01:30 26.28913 -80.22208 11104 ft 354 kts 303°
2026-05-08 01:31 26.30267 -80.24495 11847 ft 352 kts 302°
2026-05-08 01:31 26.31607 -80.26784 12492 ft 355 kts 302°
2026-05-08 01:31 26.32950 -80.29108 13072 ft 358 kts 302°
2026-05-08 01:31 26.34298 -80.31462 13706 ft 360 kts 302°
2026-05-08 01:32 26.35624 -80.33791 14317 ft 361 kts 301°
2026-05-08 01:32 26.36970 -80.36165 14879 ft 363 kts 301°
2026-05-08 01:32 26.38324 -80.38554 15446 ft 365 kts 301°
2026-05-08 01:32 26.39684 -80.40958 16038 ft 366 kts 301°
2026-05-08 01:33 26.41043 -80.43361 16610 ft 367 kts 301°
2026-05-08 01:33 26.42407 -80.45775 17193 ft 368 kts 301°
2026-05-08 01:33 26.43777 -80.48200 17760 ft 370 kts 301°
2026-05-08 01:33 26.45155 -80.50640 18299 ft 372 kts 301°
2026-05-08 01:34 26.46539 -80.53091 18773 ft 374 kts 301°
2026-05-08 01:34 26.48163 -80.55361 19218 ft 378 kts 316°
2026-05-08 01:34 26.50342 -80.57026 19678 ft 384 kts 332°
2026-05-08 01:34 26.52870 -80.58024 20136 ft 388 kts 340°
2026-05-08 01:35 26.55480 -80.58846 20580 ft 391 kts 341°
2026-05-08 01:35 26.58120 -80.59638 20991 ft 394 kts 341°
2026-05-08 01:35 26.60774 -80.60436 21387 ft 396 kts 341°
2026-05-08 01:35 26.63410 -80.61243 21779 ft 399 kts 340°
2026-05-08 01:36 26.66088 -80.62076 22191 ft 401 kts 340°
2026-05-08 01:36 26.68777 -80.62923 22601 ft 403 kts 340°
2026-05-08 01:36 26.71480 -80.63781 22985 ft 405 kts 339°
2026-05-08 01:36 26.74194 -80.64645 23359 ft 407 kts 339°
2026-05-08 01:37 26.76927 -80.65516 23703 ft 409 kts 339°
2026-05-08 01:37 26.79678 -80.66393 24017 ft 411 kts 339°
2026-05-08 01:37 26.82434 -80.67272 24319 ft 413 kts 339°
2026-05-08 01:37 26.85202 -80.68155 24614 ft 415 kts 339°
2026-05-08 01:38 26.87983 -80.69043 24922 ft 416 kts 339°
2026-05-08 01:38 26.90776 -80.69935 25226 ft 418 kts 339°
2026-05-08 01:38 26.93566 -80.70880 25519 ft 419 kts 337°
2026-05-08 01:38 26.96334 -80.71916 25811 ft 420 kts 336°
2026-05-08 01:39 26.99108 -80.72991 26113 ft 422 kts 336°
2026-05-08 01:39 27.01851 -80.74059 26409 ft 424 kts 336°
2026-05-08 01:39 27.04655 -80.75142 26714 ft 426 kts 336°
2026-05-08 01:39 27.07466 -80.76218 26993 ft 428 kts 336°
2026-05-08 01:40 27.10298 -80.77296 27259 ft 430 kts 336°
2026-05-08 01:40 27.13137 -80.78374 27554 ft 432 kts 336°
2026-05-08 01:40 27.15993 -80.79456 27836 ft 434 kts 336°
2026-05-08 01:40 27.18857 -80.80542 28113 ft 436 kts 336°
2026-05-08 01:41 27.21734 -80.81633 28392 ft 437 kts 336°
2026-05-08 01:41 27.24619 -80.82728 28746 ft 437 kts 336°
2026-05-08 01:41 27.27491 -80.83818 29176 ft 435 kts 336°
2026-05-08 01:41 27.30356 -80.84907 29610 ft 434 kts 336°
2026-05-08 01:42 27.33210 -80.85999 30022 ft 433 kts 335°
2026-05-08 01:42 27.36042 -80.87136 30355 ft 432 kts 335°
2026-05-08 01:42 27.38858 -80.88299 30710 ft 431 kts 334°
2026-05-08 01:42 27.41628 -80.89453 31094 ft 429 kts 334°
2026-05-08 01:43 27.44427 -80.90618 31480 ft 428 kts 334°
2026-05-08 01:43 27.47221 -80.91780 31863 ft 427 kts 334°
2026-05-08 01:43 27.50000 -80.92931 32223 ft 426 kts 334°
2026-05-08 01:43 27.52782 -80.94081 32590 ft 425 kts 334°
2026-05-08 01:44 27.55554 -80.95226 32970 ft 424 kts 334°
2026-05-08 01:44 27.58323 -80.96370 33336 ft 423 kts 334°
2026-05-08 01:44 27.61079 -80.97508 33699 ft 422 kts 334°
2026-05-08 01:44 27.63836 -80.98647 34000 ft 422 kts 334°
2026-05-08 01:45 27.66599 -80.99792 33983 ft 424 kts 334°
2026-05-08 01:45 27.72114 -81.02074 33995 ft 421 kts 334°
2026-05-08 01:46 27.77598 -81.04346 34007 ft 419 kts 334°
2026-05-08 01:46 27.83065 -81.06614 34006 ft 418 kts 334°
2026-05-08 01:47 27.87596 -81.08496 34007 ft 417 kts 333°
2026-05-08 01:47 27.93036 -81.10758 34010 ft 417 kts 333°
2026-05-08 01:48 28.01204 -81.14159 34012 ft 417 kts 333°
2026-05-08 01:48 28.06593 -81.16561 34013 ft 415 kts 329°
2026-05-08 01:49 28.11837 -81.19302 34019 ft 415 kts 328°
2026-05-08 01:49 28.17082 -81.22062 34019 ft 416 kts 329°
2026-05-08 01:50 28.22318 -81.24772 34016 ft 416 kts 329°
2026-05-08 01:50 28.27594 -81.27490 34020 ft 417 kts 329°
2026-05-08 01:51 28.32871 -81.30212 34010 ft 417 kts 329°
2026-05-08 01:51 28.38160 -81.32927 34008 ft 417 kts 329°
2026-05-08 01:52 28.43447 -81.35620 34010 ft 416 kts 329°
2026-05-08 01:52 28.48721 -81.38309 34012 ft 416 kts 328°
2026-05-08 01:53 28.53995 -81.41005 34012 ft 415 kts 328°
2026-05-08 01:53 28.59254 -81.43698 34010 ft 414 kts 328°
2026-05-08 01:54 28.64501 -81.46388 34012 ft 413 kts 328°
2026-05-08 01:54 28.69735 -81.49075 34009 ft 412 kts 328°
2026-05-08 01:55 28.74970 -81.51765 34006 ft 411 kts 328°
2026-05-08 01:55 28.80151 -81.54430 34017 ft 410 kts 328°
2026-05-08 01:56 28.85357 -81.57112 34012 ft 410 kts 328°
2026-05-08 01:56 28.90551 -81.59769 34017 ft 411 kts 330°
2026-05-08 01:57 28.96204 -81.61334 34015 ft 428 kts 346°
2026-05-08 01:57 29.02153 -81.61858 34014 ft 429 kts 347°
2026-05-08 01:58 29.08111 -81.62340 34010 ft 429 kts 347°
2026-05-08 01:58 29.14057 -81.62860 34010 ft 428 kts 346°
2026-05-08 01:59 29.19999 -81.63402 34013 ft 428 kts 346°
2026-05-08 01:59 29.25944 -81.63951 34011 ft 428 kts 346°
2026-05-08 02:00 29.31848 -81.64496 34008 ft 429 kts 346°
2026-05-08 02:00 29.37800 -81.65046 34013 ft 429 kts 346°
2026-05-08 02:01 29.43759 -81.65596 34008 ft 430 kts 346°
2026-05-08 02:01 29.49726 -81.66148 34009 ft 430 kts 346°
2026-05-08 02:02 29.55710 -81.66702 34002 ft 431 kts 346°
2026-05-08 02:02 29.61695 -81.67257 34004 ft 432 kts 346°
2026-05-08 02:03 29.67686 -81.67813 34003 ft 432 kts 346°
2026-05-08 02:03 29.73654 -81.68365 34002 ft 433 kts 346°
2026-05-08 02:04 29.79670 -81.68920 33990 ft 434 kts 346°
2026-05-08 02:04 29.85695 -81.69475 33997 ft 435 kts 346°
2026-05-08 02:05 29.91732 -81.70032 33990 ft 435 kts 345°
2026-05-08 02:05 29.97780 -81.70591 33991 ft 436 kts 345°
2026-05-08 02:06 30.03824 -81.71150 33992 ft 436 kts 345°
2026-05-08 02:06 30.09842 -81.71708 33989 ft 437 kts 345°
2026-05-08 02:07 30.15905 -81.72271 33997 ft 437 kts 345°
2026-05-08 02:07 30.21970 -81.72834 33998 ft 437 kts 345°
2026-05-08 02:08 30.28027 -81.73397 34024 ft 436 kts 345°
2026-05-08 02:08 30.34081 -81.73961 34020 ft 436 kts 345°
2026-05-08 02:09 30.40135 -81.74525 33983 ft 435 kts 345°
2026-05-08 02:09 30.46131 -81.75085 33984 ft 435 kts 345°
2026-05-08 02:10 30.52153 -81.75649 33989 ft 434 kts 345°
2026-05-08 02:10 30.58182 -81.76214 33979 ft 434 kts 345°
2026-05-08 02:11 30.63943 -81.77555 33985 ft 413 kts 329°
2026-05-08 02:11 30.69033 -81.80372 33975 ft 404 kts 323°
2026-05-08 02:12 30.74054 -81.83341 33977 ft 405 kts 323°
2026-05-08 02:12 30.79090 -81.86297 33964 ft 406 kts 323°
2026-05-08 02:13 30.84154 -81.89246 33958 ft 408 kts 323°
2026-05-08 02:13 30.89240 -81.92200 33967 ft 409 kts 323°
2026-05-08 02:14 30.94338 -81.95163 33963 ft 410 kts 323°
2026-05-08 02:14 30.99436 -81.98129 33966 ft 410 kts 323°
2026-05-08 02:15 31.04540 -82.01103 33966 ft 410 kts 323°
2026-05-08 02:15 31.09616 -82.04063 33970 ft 410 kts 323°
2026-05-08 02:16 31.14714 -82.07041 33973 ft 410 kts 323°
2026-05-08 02:16 31.19817 -82.10025 33979 ft 409 kts 323°
2026-05-08 02:17 31.24896 -82.12998 33981 ft 408 kts 323°
2026-05-08 02:17 31.29968 -82.15972 33982 ft 407 kts 323°
2026-05-08 02:18 31.35029 -82.18942 33985 ft 406 kts 323°
2026-05-08 02:18 31.40076 -82.21908 33987 ft 405 kts 323°
2026-05-08 02:19 31.45079 -82.24852 33979 ft 405 kts 323°
2026-05-08 02:19 31.50120 -82.27822 33980 ft 404 kts 323°
2026-05-08 02:20 31.55144 -82.30785 33979 ft 404 kts 322°
2026-05-08 02:20 31.60157 -82.33745 33977 ft 403 kts 322°
2026-05-08 02:21 31.65183 -82.36717 33979 ft 403 kts 322°
2026-05-08 02:21 31.70149 -82.39657 33980 ft 402 kts 322°
2026-05-08 02:22 31.75153 -82.42623 33977 ft 402 kts 322°
2026-05-08 02:22 31.80142 -82.45583 33976 ft 401 kts 322°
2026-05-08 02:23 31.85129 -82.48547 33973 ft 401 kts 322°
2026-05-08 02:23 31.90103 -82.51507 33968 ft 400 kts 322°
2026-05-08 02:24 31.95058 -82.54477 33964 ft 396 kts 319°
2026-05-08 02:24 31.97344 -82.56200 33960 ft 385 kts 311°
2026-05-08 02:24 31.99369 -82.58214 33976 ft 379 kts 309°
2026-05-08 02:25 32.03340 -82.62303 33977 ft 378 kts 308°
2026-05-08 02:25 32.07304 -82.66371 33809 ft 376 kts 309°
2026-05-08 02:26 32.09258 -82.68363 33543 ft 367 kts 309°
2026-05-08 02:26 32.11171 -82.70307 33280 ft 358 kts 308°
2026-05-08 02:26 32.13028 -82.72194 33009 ft 347 kts 308°
2026-05-08 02:26 32.14834 -82.74034 32756 ft 340 kts 308°
2026-05-08 02:27 32.16595 -82.75837 32505 ft 339 kts 308°
2026-05-08 02:27 32.18381 -82.77673 32287 ft 343 kts 308°
2026-05-08 02:27 32.20194 -82.79540 31938 ft 349 kts 308°
2026-05-08 02:27 32.22023 -82.81415 31550 ft 347 kts 309°
2026-05-08 02:28 32.23836 -82.83266 31170 ft 342 kts 309°
2026-05-08 02:28 32.25626 -82.85093 30790 ft 338 kts 309°
2026-05-08 02:28 32.27391 -82.86898 30267 ft 333 kts 309°
2026-05-08 02:28 32.28938 -82.88484 29649 ft 0 kts 309°
2026-05-08 02:29 32.30381 -82.90298 28899 ft 329 kts 309°
2026-05-08 02:29 32.32152 -82.92008 28265 ft 327 kts 311°
2026-05-08 02:29 32.33916 -82.93681 27590 ft 322 kts 310°
2026-05-08 02:29 32.35619 -82.95363 26980 ft 317 kts 309°
2026-05-08 02:30 32.37279 -82.97048 26374 ft 312 kts 309°
2026-05-08 02:30 32.38910 -82.98722 25785 ft 308 kts 309°
2026-05-08 02:30 32.40517 -83.00376 25213 ft 305 kts 309°
2026-05-08 02:30 32.42111 -83.02018 24646 ft 302 kts 309°
2026-05-08 02:31 32.43689 -83.03647 24093 ft 300 kts 309°
2026-05-08 02:31 32.45250 -83.05258 23541 ft 297 kts 309°
2026-05-08 02:31 32.46808 -83.06867 22891 ft 295 kts 309°
2026-05-08 02:31 32.48351 -83.08461 22253 ft 293 kts 309°
2026-05-08 02:32 32.49883 -83.10044 21615 ft 291 kts 309°
2026-05-08 02:32 32.51385 -83.11598 21023 ft 289 kts 309°
2026-05-08 02:32 32.52896 -83.13161 20446 ft 287 kts 309°
2026-05-08 02:32 32.54388 -83.14703 19930 ft 283 kts 309°
2026-05-08 02:33 32.55859 -83.16224 19411 ft 279 kts 309°
2026-05-08 02:33 32.57312 -83.17728 18909 ft 276 kts 309°
2026-05-08 02:33 32.58752 -83.19219 18419 ft 273 kts 309°
2026-05-08 02:33 32.60170 -83.20686 18200 ft 268 kts 309°
2026-05-08 02:34 32.61570 -83.22136 17934 ft 267 kts 309°
2026-05-08 02:34 32.62973 -83.23596 17684 ft 270 kts 309°
2026-05-08 02:34 32.64394 -83.25075 17434 ft 273 kts 309°
2026-05-08 02:34 32.65830 -83.26570 17181 ft 275 kts 309°
2026-05-08 02:35 32.67267 -83.28062 16917 ft 274 kts 309°
2026-05-08 02:35 32.68219 -83.29050 16752 ft 273 kts 309°
2026-05-08 02:35 32.70110 -83.31014 16431 ft 273 kts 309°
2026-05-08 02:35 32.71535 -83.32497 16176 ft 272 kts 309°
2026-05-08 02:36 32.72955 -83.33975 15943 ft 271 kts 309°
2026-05-08 02:36 32.74372 -83.35450 15705 ft 270 kts 310°
2026-05-08 02:36 32.75784 -83.36919 15460 ft 269 kts 310°
2026-05-08 02:36 32.76712 -83.37886 15310 ft 268 kts 310°
2026-05-08 02:37 32.78109 -83.39342 15065 ft 266 kts 310°
2026-05-08 02:37 32.79498 -83.40790 14831 ft 265 kts 309°
2026-05-08 02:37 32.80883 -83.42235 14599 ft 263 kts 309°
2026-05-08 02:37 32.82254 -83.43667 14382 ft 262 kts 310°
2026-05-08 02:38 32.83621 -83.45094 14151 ft 260 kts 310°
2026-05-08 02:38 32.84973 -83.46505 14018 ft 256 kts 310°
2026-05-08 02:38 32.86308 -83.47901 13978 ft 257 kts 309°
2026-05-08 02:38 32.87647 -83.49303 13954 ft 255 kts 309°
2026-05-08 02:39 32.88975 -83.50693 13950 ft 254 kts 309°
2026-05-08 02:39 32.90299 -83.52079 13954 ft 253 kts 309°
2026-05-08 02:39 32.91621 -83.53465 13958 ft 255 kts 309°
2026-05-08 02:39 32.92957 -83.54864 13958 ft 255 kts 309°
2026-05-08 02:40 32.94294 -83.56265 13956 ft 256 kts 309°
2026-05-08 02:40 32.95640 -83.57676 13781 ft 259 kts 309°
2026-05-08 02:40 32.96977 -83.59075 13533 ft 258 kts 310°
2026-05-08 02:40 32.98322 -83.60482 13271 ft 256 kts 310°
2026-05-08 02:41 32.99655 -83.61876 13018 ft 253 kts 310°
2026-05-08 02:41 33.00973 -83.63256 12766 ft 251 kts 310°
2026-05-08 02:41 33.02282 -83.64628 12514 ft 250 kts 310°
2026-05-08 02:41 33.03587 -83.65998 12261 ft 249 kts 310°
2026-05-08 02:42 33.04885 -83.67361 12015 ft 249 kts 310°
2026-05-08 02:42 33.06186 -83.68727 11774 ft 248 kts 310°
2026-05-08 02:42 33.07483 -83.70091 11529 ft 248 kts 310°
2026-05-08 02:42 33.08777 -83.71451 11294 ft 248 kts 310°
2026-05-08 02:43 33.10074 -83.72815 11069 ft 248 kts 311°
2026-05-08 02:43 33.11364 -83.74170 11000 ft 247 kts 311°
2026-05-08 02:43 33.12645 -83.75519 10969 ft 250 kts 311°
2026-05-08 02:43 33.13975 -83.76921 10967 ft 254 kts 311°
2026-05-08 02:44 33.15295 -83.78315 10729 ft 259 kts 311°
2026-05-08 02:44 33.16659 -83.79755 10495 ft 258 kts 311°
2026-05-08 02:44 33.17996 -83.81166 10294 ft 255 kts 311°
2026-05-08 02:44 33.19294 -83.82548 10069 ft 251 kts 309°
2026-05-08 02:45 33.20566 -83.84035 10015 ft 254 kts 308°
2026-05-08 02:45 33.21792 -83.85508 9969 ft 252 kts 308°
2026-05-08 02:45 33.23017 -83.86980 9970 ft 246 kts 308°
2026-05-08 02:45 33.24206 -83.88404 9775 ft 243 kts 308°
2026-05-08 02:46 33.25408 -83.89844 9385 ft 244 kts 308°
2026-05-08 02:46 33.26609 -83.91279 9007 ft 245 kts 308°
2026-05-08 02:46 33.27820 -83.92725 8637 ft 246 kts 308°
2026-05-08 02:46 33.29036 -83.94175 8268 ft 247 kts 309°
2026-05-08 02:47 33.30246 -83.95620 8021 ft 242 kts 308°
2026-05-08 02:47 33.31426 -83.97029 7883 ft 241 kts 309°
2026-05-08 02:47 33.32611 -83.98450 7646 ft 242 kts 309°
2026-05-08 02:47 33.33803 -83.99878 7344 ft 241 kts 309°
2026-05-08 02:48 33.34987 -84.01294 7092 ft 240 kts 309°
2026-05-08 02:48 33.36335 -84.02467 7015 ft 246 kts 331°
2026-05-08 02:48 33.38004 -84.02980 7007 ft 259 kts 347°
2026-05-08 02:48 33.39857 -84.03053 7015 ft 266 kts 352°
2026-05-08 02:49 33.41719 -84.03049 7008 ft 268 kts 352°
2026-05-08 02:49 33.43557 -84.03057 6992 ft 268 kts 352°
2026-05-08 02:49 33.45426 -84.03080 6987 ft 267 kts 351°
2026-05-08 02:49 33.47291 -84.03032 6984 ft 271 kts 358°
2026-05-08 02:50 33.49161 -84.02715 7005 ft 272 kts
2026-05-08 02:50 33.51033 -84.02335 7004 ft 272 kts
2026-05-08 02:50 33.52904 -84.01969 6997 ft 272 kts
2026-05-08 02:50 33.54781 -84.01620 6911 ft 275 kts
2026-05-08 02:51 33.56673 -84.01277 6760 ft 273 kts
2026-05-08 02:51 33.58521 -84.00942 6608 ft 265 kts
2026-05-08 02:51 33.60279 -84.00969 6422 ft 243 kts 333°
2026-05-08 02:51 33.61541 -84.02093 6289 ft 219 kts 297°
2026-05-08 02:52 33.62118 -84.03723 6190 ft 209 kts 286°
2026-05-08 02:52 33.62500 -84.05401 6086 ft 210 kts 281°
2026-05-08 02:52 33.62789 -84.07138 5997 ft 214 kts 278°
2026-05-08 02:52 33.63011 -84.08909 5895 ft 214 kts 277°
2026-05-08 02:53 33.63162 -84.10682 5824 ft 211 kts 273°
2026-05-08 02:53 33.63216 -84.12394 5687 ft 208 kts 271°
2026-05-08 02:53 33.63227 -84.14113 5459 ft 205 kts 271°
2026-05-08 02:53 33.63225 -84.15820 5201 ft 204 kts 271°
2026-05-08 02:54 33.63221 -84.17512 4943 ft 203 kts 271°
2026-05-08 02:54 33.63216 -84.19205 4667 ft 202 kts 271°
2026-05-08 02:54 33.63211 -84.20877 4421 ft 198 kts 271°
2026-05-08 02:54 33.63207 -84.22507 4139 ft 193 kts 272°
2026-05-08 02:55 33.63204 -84.24091 3885 ft 186 kts 272°
2026-05-08 02:55 33.63198 -84.27072 3414 ft 170 kts 273°
2026-05-08 02:55 33.63195 -84.28461 3192 ft 163 kts 274°
2026-05-08 02:56 33.63193 -84.29769 2988 ft 148 kts 274°
2026-05-08 02:56 33.63192 -84.30982 2785 ft 144 kts 274°
2026-05-08 02:56 33.63190 -84.32159 2600 ft 140 kts 274°
2026-05-08 02:56 33.63189 -84.33335 2430 ft 142 kts 275°
2026-05-08 02:57 33.63188 -84.34518 2245 ft 141 kts 274°
2026-05-08 02:57 33.63186 -84.35691 2055 ft 140 kts 274°
2026-05-08 02:57 33.63186 -84.36869 1866 ft 143 kts 274°
2026-05-08 02:57 33.63185 -84.38066 1670 ft 144 kts 273°
2026-05-08 02:58 33.63184 -84.39268 1457 ft 143 kts 272°
2026-05-08 02:58 33.63180 -84.40471 1307 ft 145 kts 271°
2026-05-08 02:58 33.63181 -84.41651 1084 ft 137 kts 271°
2026-05-08 02:58 33.63183 -84.42713 1005 ft 110 kts 269°
2026-05-08 02:59 33.63183 -84.43378 1007 ft 56 kts 269°
2026-05-08 02:59 33.63181 -84.43832 1004 ft 52 kts 269°
2026-05-08 02:59 33.63214 -84.44122 1004 ft 24 kts 290°
2026-05-08 02:59 33.63285 -84.44255 1005 ft 13 kts 329°
2026-05-08 03:00 33.63360 -84.44232 1005 ft 7 kts 40°
2026-05-08 03:00 33.63367 -84.44224 1005 ft 3 kts 40°
2026-05-08 03:00 33.63412 -84.44196 1005 ft 13 kts
2026-05-08 03:00 33.63505 -84.44193 1006 ft 13 kts
2026-05-08 03:01 33.63579 -84.44147 1006 ft 13 kts 73°
2026-05-08 03:01 33.63582 -84.44041 1006 ft 13 kts 89°
2026-05-08 03:01 33.63582 -84.43938 1006 ft 12 kts 90°
2026-05-08 03:01 33.63581 -84.43838 1006 ft 12 kts 90°
2026-05-08 03:02 33.63618 -84.43759 1005 ft 12 kts 18°
2026-05-08 03:02 33.63687 -84.43779 1005 ft 7 kts 338°
2026-05-08 03:02 33.63723 -84.43787 1005 ft 3 kts 353°
2026-05-08 03:02 33.63743 -84.43790 1005 ft 3 kts 355°
2026-05-08 03:03 33.63764 -84.43794 1005 ft 4 kts 339°
2026-05-08 03:03 33.63790 -84.43810 1005 ft 4 kts 328°
2026-05-08 03:03 33.63801 -84.43839 1005 ft 4 kts 272°
2026-05-08 03:03 33.63801 -84.43858 1005 ft 2 kts 270°
2026-05-08 03:04 33.63801 -84.43867 1005 ft 0 kts 270°